TIANLIAN 2-05

Last updated on Sun Apr 12 2026 00:02:57 GMT+0000 (Coordinated Universal Time)

1 63662U 25084A 26101.23948255 .00000118 00000+0 00000+0 0 9998 2 63662 4.6227 280.5757 0003523 110.4611 275.0254 1.00274811 3717
UTC large
Height (km)
Speed (km/s)
/
Latitude / Longitude
Inclination (degrees)
Orbital Period (minutes)
Azimuth
Elevation
Range (km)
Doppler Factor

Next 0 passes for location: London (51.5072 / 0.1276)

Sorry there are no passes over London.
TIANLIAN 2-05